Weather History for KJAC - February, 2014

Change the Weather History Date:

Monday, February 10, 2014

  Actual Average Record
Temperature  
Mean Temperature 27 °F -  
Max Temperature 33 °F 27 °F 48 °F (2015)
Min Temperature 21 °F 1 °F -30 °F (1989)
Degree Days  
Heating Degree Days 38    
Moisture  
Dew Point 22 °F    
Average Humidity 79    
Maximum Humidity 93    
Minimum Humidity 48    
Precipitation  
Precipitation 0.00 in - - ()
Sea Level Pressure  
Sea Level Pressure 30.02 in    
Wind  
Wind Speed 9 mph (SSW)    
Max Wind Speed 17 mph    
Max Gust Speed 21 mph    
Visibility 10 miles    
Events Snow    
Averages and records for this station are not official NWS values.
T = Trace of Precipitation, MM = Missing Value Source: NWS Daily Summary

Daily Weather History Graph

Daily Weather History Graph

Search for Another Location

Airport or City:

Trip Planner

Search our weather history database for the weather conditions in past years. The results will help you decide how hot, cold, wet, or windy it might be!

Date:

Astronomy

Feb. 10, 2014 Rise Set
Actual Time 7:28 AM MST 5:46 PM MST
Civil Twilight 6:58 AM MST 6:16 PM MST
Nautical Twilight 6:24 AM MST 6:50 PM MST
Astronomical Twilight 5:51 AM MST 7:23 PM MST
Moon 2:15 PM MST (2/10) 4:27 AM MST (2/10)
Length of Visible Light 11h 17m
Length of Day
10h 18m
Waxing Gibbous, 85% of the Moon is Illuminated
Feb 10
Waxing Gibbous
Feb 14
Full
Feb 22
Last Quarter
Mar 1
New
Mar 8
First Quarter

Hourly Weather History & Observations

Time (MST) Temp. Windchill Dew Point Humidity Pressure Visibility Wind Dir Wind Speed Gust Speed Precip Events Conditions
12:15 AM 30.2 °F 19.8 °F 24.8 °F 80% 29.94 in 10.0 mi South 13.8 mph - N/A   Overcast
12:35 AM 30.2 °F 18.5 °F 24.8 °F 80% 29.94 in 10.0 mi South 17.3 mph - N/A   Overcast
12:55 AM 30.2 °F 23.4 °F 24.8 °F 80% 29.94 in 10.0 mi SSW 6.9 mph - N/A   Overcast
1:15 AM 30.2 °F 22.6 °F 24.8 °F 80% 29.94 in 10.0 mi SW 8.1 mph - N/A   Overcast
1:35 AM 30.2 °F 25.4 °F 23.0 °F 75% 29.94 in 10.0 mi SW 4.6 mph - N/A   Overcast
1:55 AM 30.2 °F 26.7 °F 23.0 °F 75% 29.95 in - SW 3.5 mph - N/A   Overcast
2:15 AM 30.2 °F 22.6 °F 24.8 °F 80% 29.95 in - South 8.1 mph - N/A   Overcast
2:35 AM 30.2 °F 22.6 °F 24.8 °F 80% 29.95 in 10.0 mi South 8.1 mph - N/A   Overcast
2:55 AM 30.2 °F 20.8 °F 23.0 °F 75% 29.95 in 10.0 mi South 11.5 mph - N/A   Overcast
3:15 AM 30.2 °F 21.9 °F 24.8 °F 80% 29.94 in 10.0 mi South 9.2 mph - N/A   Overcast
3:35 AM 30.2 °F 21.9 °F 24.8 °F 80% 29.94 in 10.0 mi SSW 9.2 mph - N/A   Overcast
3:55 AM 30.2 °F 21.9 °F 24.8 °F 80% 29.94 in 10.0 mi South 9.2 mph 16.1 mph N/A   Overcast
4:15 AM 30.2 °F 20.2 °F 24.8 °F 80% 29.94 in 10.0 mi South 12.7 mph - N/A   Overcast
4:35 AM 30.2 °F 19.8 °F 24.8 °F 80% 29.94 in 10.0 mi South 13.8 mph - N/A   Overcast
4:55 AM 30.2 °F 20.2 °F 23.0 °F 75% 29.94 in 10.0 mi South 12.7 mph 18.4 mph N/A   Overcast
5:15 AM 30.2 °F 20.2 °F 23.0 °F 75% 29.95 in 10.0 mi South 12.7 mph - N/A   Overcast
5:35 AM 30.2 °F 23.4 °F 23.0 °F 75% 29.95 in 10.0 mi SSW 6.9 mph - N/A   Overcast
5:55 AM 30.2 °F 20.8 °F 23.0 °F 75% 29.95 in 10.0 mi South 11.5 mph - N/A   Overcast
6:15 AM 30.2 °F 26.7 °F 23.0 °F 75% 29.96 in 10.0 mi SSW 3.5 mph - N/A   Overcast
6:35 AM 30.2 °F - 24.8 °F 80% 29.96 in - Calm Calm - N/A   Overcast
6:51 AM 26.6 °F 19.1 °F 24.8 °F 93% 29.97 in 7.0 mi NNE 6.9 mph - N/A   Overcast
6:55 AM 26.6 °F 19.1 °F 24.8 °F 93% 29.97 in 10.0 mi NE 6.9 mph - N/A   Overcast
7:54 AM 26.6 °F 18.2 °F 24.8 °F 93% 30.00 in 7.0 mi North 8.1 mph - N/A   Overcast
8:52 AM 26.6 °F 21.2 °F 24.8 °F 93% 30.02 in 10.0 mi NNE 4.6 mph - N/A   Scattered Clouds
9:52 AM 28.4 °F 23.3 °F 24.8 °F 86% 30.04 in 10.0 mi NE 4.6 mph - N/A   Mostly Cloudy
10:51 AM 28.4 °F 23.3 °F 26.6 °F 93% 30.08 in 4.0 mi North 4.6 mph - N/A Snow Light Snow
11:51 AM 30.2 °F 24.3 °F 26.6 °F 86% 30.08 in 10.0 mi North 5.8 mph - N/A   Mostly Cloudy
12:51 PM 32.0 °F 28.7 °F 26.6 °F 80% 30.06 in 10.0 mi NNE 3.5 mph - N/A   Mostly Cloudy
1:51 PM 33.8 °F 29.6 °F 17.6 °F 52% 30.06 in 10.0 mi SE 4.6 mph - N/A   Mostly Cloudy
2:51 PM 33.8 °F 25.8 °F 15.8 °F 48% 30.06 in 10.0 mi WNW 10.4 mph 20.7 mph N/A   Scattered Clouds
3:51 PM 33.8 °F 26.4 °F 15.8 °F 48% 30.07 in 10.0 mi SW 9.2 mph - N/A   Scattered Clouds
4:54 PM 30.2 °F 21.9 °F 17.6 °F 60% 30.09 in 10.0 mi SW 9.2 mph - N/A   Partly Cloudy
5:51 PM 28.4 °F 21.2 °F 21.2 °F 74% 30.10 in 10.0 mi SSE 6.9 mph - N/A   Partly Cloudy
6:51 PM 26.6 °F 18.2 °F 19.4 °F 74% 30.13 in 10.0 mi South 8.1 mph - N/A   Partly Cloudy
7:54 PM 24.8 °F 14.0 °F 17.6 °F 74% 30.13 in 10.0 mi South 11.5 mph - N/A   Partly Cloudy
8:55 PM 24.8 °F 16.1 °F 19.4 °F 80% 30.13 in 10.0 mi South 8.1 mph - N/A   Clear
9:15 PM 21.2 °F - 17.6 °F 86% 30.13 in 10.0 mi Calm Calm - N/A   Partly Cloudy
9:35 PM 24.8 °F 16.1 °F 19.4 °F 80% 30.13 in - SW 8.1 mph - N/A   Clear
9:55 PM 23.0 °F 14.7 °F 17.6 °F 80% 30.13 in 10.0 mi SSW 6.9 mph - N/A   Clear
10:15 PM 21.2 °F 10.9 °F 17.6 °F 86% 30.13 in 10.0 mi WSW 9.2 mph - N/A   Partly Cloudy
10:35 PM 21.2 °F 9.5 °F 17.6 °F 86% 30.12 in 10.0 mi SW 11.5 mph - N/A   Partly Cloudy
10:55 PM 21.2 °F 12.6 °F 17.6 °F 86% 30.12 in 10.0 mi SW 6.9 mph - N/A   Scattered Clouds
11:15 PM 23.0 °F 14.7 °F 19.4 °F 86% 30.12 in 10.0 mi West 6.9 mph - N/A   Mostly Cloudy
11:35 PM 21.2 °F 12.6 °F 17.6 °F 86% 30.12 in 10.0 mi WSW 6.9 mph - N/A   Overcast
11:55 PM 21.2 °F 10.9 °F 17.6 °F 86% 30.12 in 10.0 mi SW 9.2 mph - N/A   Overcast